Needles, CA

4:14 AM PDT on July 21, 2017 (GMT -0700)
Needles

Weather History for KEED - August, 2013

Change the Weather History Date:

Friday, August 2, 2013

  Actual Average Record
Temperature  
Mean Temperature 98 °F 96 °F  
Max Temperature 109 °F 108 °F 120 °F (1993)
Min Temperature 88 °F 85 °F 68 °F (1937)
Degree Days  
Heating Degree Days 0    
Cooling Degree Days 33    
Growing Degree Days 48 (Base 50)    
Moisture  
Dew Point 36 °F    
Average Humidity 12    
Maximum Humidity 18    
Minimum Humidity 7    
Precipitation  
Precipitation 0.00 in 0.01 in 0.85 in (1951)
Month to date precipitation 0.02  
Year to date precipitation 2.56  
Sea Level Pressure  
Sea Level Pressure 29.67 in    
Wind  
Wind Speed 9 mph (SSW)    
Max Wind Speed 16 mph    
Max Gust Speed 24 mph    
Visibility 10 miles    
Events      
T = Trace of Precipitation, MM = Missing Value Source: NWS Daily Summary

Daily Weather History Graph

Daily Weather History Graph

Search for Another Location

Airport or City:

Trip Planner

Search our weather history database for the weather conditions in past years. The results will help you decide how hot, cold, wet, or windy it might be!

Date:

Astronomy

Aug. 02, 2013 Rise Set
Actual Time 5:49 AM PDT 7:39 PM PDT
Civil Twilight 5:21 AM PDT 8:07 PM PDT
Nautical Twilight 4:48 AM PDT 8:40 PM PDT
Astronomical Twilight 4:12 AM PDT 9:15 PM PDT
Moon 2:15 AM PDT (8/2) 4:38 PM PDT (8/2)
Length of Visible Light 14h 45m
Length of Day
13h 50m
Waning Crescent, 15% of the Moon is Illuminated
Aug 2
Waning Crescent
Aug 6
New
Aug 14
First Quarter
Aug 20
Full
Aug 28
Last Quarter

Hourly Weather History & Observations

Time (PDT) Temp. Dew Point Humidity Pressure Visibility Wind Dir Wind Speed Gust Speed Precip Events Conditions
12:56 AM 93.9 °F 39.9 °F 15% 29.64 in 10.0 mi West 13.8 mph - N/A   Partly Cloudy
1:56 AM 95.0 °F 37.9 °F 14% 29.65 in 10.0 mi SSW 5.8 mph - N/A   Clear
2:56 AM 93.9 °F 37.9 °F 14% 29.64 in 10.0 mi WSW 8.1 mph - N/A   Clear
3:56 AM 91.9 °F 39.0 °F 16% 29.65 in 10.0 mi South 6.9 mph - N/A   Clear
4:56 AM 89.1 °F 37.9 °F 16% 29.65 in 10.0 mi North 4.6 mph - N/A   Clear
5:56 AM 88.0 °F 39.0 °F 18% 29.68 in 10.0 mi Calm Calm - N/A   Clear
6:56 AM 91.0 °F 39.0 °F 16% 29.70 in 10.0 mi WSW 8.1 mph - N/A   Clear
7:56 AM 93.0 °F 37.9 °F 15% 29.72 in 10.0 mi SSE 3.5 mph - N/A   Clear
8:56 AM 98.1 °F 34.0 °F 11% 29.73 in 10.0 mi WSW 9.2 mph - N/A   Clear
9:56 AM 99.0 °F 36.0 °F 11% 29.73 in 10.0 mi South 4.6 mph - N/A   Clear
10:56 AM 100.0 °F 37.9 °F 12% 29.73 in 10.0 mi SW 8.1 mph 17.3 mph N/A   Clear
11:56 AM 105.1 °F 33.1 °F 8% 29.71 in 10.0 mi SSW 13.8 mph 24.2 mph N/A   Clear
12:56 PM 106.0 °F 32.0 °F 8% 29.70 in 10.0 mi SW 11.5 mph 20.7 mph N/A   Clear
1:56 PM 107.1 °F 35.1 °F 8% 29.68 in 10.0 mi South 16.1 mph 21.9 mph N/A   Clear
2:56 PM 108.0 °F 34.0 °F 8% 29.65 in 10.0 mi SSW 13.8 mph 20.7 mph N/A   Mostly Cloudy
3:56 PM 106.0 °F 34.0 °F 8% 29.64 in 10.0 mi South 12.7 mph 24.2 mph N/A   Scattered Clouds
4:56 PM 108.0 °F 33.1 °F 8% 29.63 in 10.0 mi SSW 13.8 mph 21.9 mph N/A   Mostly Cloudy
5:56 PM 106.0 °F 28.9 °F 7% 29.63 in 10.0 mi South 11.5 mph - N/A   Scattered Clouds
6:56 PM 105.1 °F 37.9 °F 10% 29.63 in 10.0 mi SSW 13.8 mph - N/A   Clear
7:56 PM 102.0 °F 41.0 °F 12% 29.64 in 10.0 mi South 9.2 mph - N/A   Scattered Clouds
8:56 PM 100.0 °F 39.0 °F 12% 29.65 in 10.0 mi SW 6.9 mph - N/A   Partly Cloudy
9:56 PM 99.0 °F 37.9 °F 12% 29.67 in 10.0 mi SW 11.5 mph - N/A   Clear
10:56 PM 97.0 °F 37.0 °F 12% 29.68 in 10.0 mi SSW 9.2 mph - N/A   Clear
11:56 PM 93.9 °F 35.1 °F 13% 29.68 in 10.0 mi SSW 8.1 mph - N/A   Clear